Perth, Western Australia

6:00 AM AWST on August 30, 2016 (GMT +0800)
Perth International

Weather History for YPPH - March, 2013

Change the Weather History Date:

Thursday, March 28, 2013

  Actual Average Record
Temperature  
Mean Temperature 64 °F -  
Max Temperature 77 °F 78 °F 93 °F (2011)
Min Temperature 51 °F 56 °F 41 °F (2007)
Degree Days  
Heating Degree Days 1    
Growing Degree Days 14 (Base 50)    
Moisture  
Dew Point 48 °F    
Average Humidity 57    
Maximum Humidity 94    
Minimum Humidity 19    
Precipitation  
Precipitation 0.00 in 0.06 in - ()
Sea Level Pressure  
Sea Level Pressure 30.29 in    
Wind  
Wind Speed 10 mph ()    
Max Wind Speed 20 mph    
Max Gust Speed -    
Visibility 19.0 miles    
Events      
Averages and records for this station are not official NWS values.
T = Trace of Precipitation, MM = Missing Value Source: Averaged Metar Reports

Daily Weather History Graph

Daily Weather History Graph

Search for Another Location

Airport or City:

Trip Planner

Search our weather history database for the weather conditions in past years. The results will help you decide how hot, cold, wet, or windy it might be!

Date:

Astronomy

Mar. 28, 2013 Rise Set
Actual Time 6:24 AM AWST 6:17 PM AWST
Civil Twilight 6:00 AM AWST 6:41 PM AWST
Nautical Twilight 5:31 AM AWST 7:09 PM AWST
Astronomical Twilight 5:03 AM AWST 7:38 PM AWST
Moon 6:42 PM AWST (3/28) 7:05 AM AWST (3/28)
Length of Visible Light 12h 41m
Length of Day
11h 52m
Full, 99% of the Moon is Illuminated
Mar 28
Full
Apr 3
Last Quarter
Apr 10
New
Apr 18
First Quarter
Apr 26
Full

Hourly Weather History & Observations

Time (AWST) Temp. Dew Point Humidity Pressure Visibility Wind Dir Wind Speed Gust Speed Precip Events Conditions
12:00 AM 54 °F 51 °F 85% 30.30 in 19 mi SSW 9.2 mph - -   Partly Cloudy
12:00 AM 53.6 °F 50.0 °F 88% 30.27 in - SSW 9.2 mph - N/A   Clear
12:30 AM 53.6 °F 50.0 °F 88% 30.30 in - SSW 10.4 mph - N/A   Clear
1:00 AM 51.8 °F 50.0 °F 94% 30.30 in - South 8.1 mph - N/A   Clear
1:30 AM 51.8 °F 50.0 °F 94% 30.30 in - South 6.9 mph - N/A   Clear
2:00 AM 52 °F 49 °F 85% 30.31 in - ESE 2.3 mph - -  
2:00 AM 51.8 °F 48.2 °F 88% 30.30 in - ESE 2.3 mph - N/A   Clear
2:30 AM 55.4 °F 46.4 °F 72% 30.30 in - ESE 10.4 mph - N/A   Clear
3:00 AM 57 °F 46 °F 57% 30.31 in 19 mi ESE 12.7 mph - -   Partly Cloudy
3:00 AM 57.2 °F 46.4 °F 67% 30.30 in - ESE 12.7 mph - N/A   Clear
3:30 AM 57.2 °F 46.4 °F 67% 30.30 in - SE 5.8 mph - N/A   Clear
4:00 AM 59.0 °F 46.4 °F 63% 30.30 in - East 6.9 mph - N/A   Clear
4:30 AM 59.0 °F 46.4 °F 63% 30.30 in - East 15.0 mph - N/A   Clear
5:00 AM 58 °F 46 °F 55% 30.32 in - East 15.0 mph - -  
5:00 AM 57.2 °F 46.4 °F 67% 30.30 in - East 15.0 mph - N/A   Clear
5:30 AM 57.2 °F 46.4 °F 67% 30.30 in - East 13.8 mph - N/A   Clear
6:00 AM 58 °F 46 °F 55% 30.33 in 19 mi East 17.3 mph - -   Partly Cloudy
6:00 AM 57.2 °F 46.4 °F 67% 30.33 in - East 17.3 mph - N/A   Clear
6:30 AM 57.2 °F 46.4 °F 67% 30.33 in - East 17.3 mph - N/A   Clear
7:00 AM 57.2 °F 46.4 °F 67% 30.33 in - ENE 16.1 mph - N/A   Clear
7:30 AM 59.0 °F 46.4 °F 63% 30.36 in - ENE 17.3 mph - N/A   Clear
8:00 AM 61 °F 47 °F 49% 30.36 in - ENE 17.3 mph - -  
8:00 AM 60.8 °F 46.4 °F 59% 30.36 in - ENE 17.3 mph - N/A   Clear
8:30 AM 62.6 °F 46.4 °F 55% 30.36 in - ENE 19.6 mph - N/A   Clear
9:00 AM 64 °F 46 °F 41% 30.38 in 19 mi ENE 17.3 mph - -   Partly Cloudy
9:00 AM 64.4 °F 46.4 °F 52% 30.36 in - ENE 17.3 mph - N/A   Clear
9:30 AM 66.2 °F 46.4 °F 49% 30.36 in - East 15.0 mph - N/A   Clear
10:00 AM 68.0 °F 46.4 °F 46% 30.36 in - ENE 13.8 mph - N/A   Clear
10:30 AM 68.0 °F 46.4 °F 46% 30.36 in - East 11.5 mph - N/A   Clear
11:00 AM 71 °F 47 °F 30% 30.35 in - East 10.4 mph - -  
11:00 AM 69.8 °F 46.4 °F 43% 30.33 in - East 10.4 mph - N/A   Clear
11:30 AM 71.6 °F 44.6 °F 38% 30.33 in - East 8.1 mph - N/A   Clear
12:00 PM 73 °F 47 °F 28% 30.32 in 19 mi SSE 6.9 mph - -   Partly Cloudy
12:00 PM 73.4 °F 46.4 °F 38% 30.30 in - South 5.8 mph - N/A   Clear
12:30 PM 73.4 °F 46.4 °F 38% 30.30 in - ESE 8.1 mph - N/A   Clear
1:00 PM 75.2 °F 46.4 °F 36% 30.27 in - SSE 8.1 mph - N/A   Clear
1:30 PM 75.2 °F 44.6 °F 34% 30.27 in - SSE 6.9 mph - N/A   Clear
2:00 PM 76 °F 44 °F 21% 30.26 in - SSE 9.2 mph - -  
2:00 PM 77.0 °F 42.8 °F 29% 30.24 in - SSE 9.2 mph - N/A   Clear
2:30 PM 77.0 °F 42.8 °F 29% 30.24 in - SSW 5.8 mph - N/A   Clear
3:00 PM 77 °F 43 °F 19% 30.24 in 19 mi South 8.1 mph - -   Partly Cloudy
3:00 PM 77.0 °F 42.8 °F 29% 30.24 in - South 8.1 mph - N/A   Clear
3:30 PM 75.2 °F 50.0 °F 41% 30.21 in - WSW 11.5 mph - N/A   Clear
4:00 PM 75.2 °F 50.0 °F 41% 30.21 in - WSW 13.8 mph - N/A   Clear
4:30 PM 73.4 °F 50.0 °F 44% 30.21 in - SW 15.0 mph - N/A   Clear
5:00 PM 72 °F 51 °F 37% 30.23 in - SW 16.1 mph - -  
5:00 PM 73.4 °F 51.8 °F 47% 30.21 in - SW 16.1 mph - N/A   Clear
5:30 PM 71.6 °F 51.8 °F 50% 30.21 in - SSW 12.7 mph - N/A   Clear
6:00 PM 71 °F 51 °F 39% 30.24 in 19 mi SSW 12.7 mph - -   Partly Cloudy
6:00 PM 69.8 °F 51.8 °F 53% 30.24 in - SSW 12.7 mph - N/A   Clear
6:30 PM 69.8 °F 51.8 °F 53% 30.24 in - SSW 10.4 mph - N/A   Clear
7:00 PM 68.0 °F 53.6 °F 60% 30.24 in - SSW 11.5 mph - N/A   Clear
7:30 PM 68.0 °F 53.6 °F 60% 30.24 in - South 10.4 mph - N/A   Clear
8:00 PM 66 °F 54 °F 55% 30.26 in - South 8.1 mph - -  
8:00 PM 66.2 °F 53.6 °F 64% 30.24 in - South 8.1 mph - N/A   Clear
8:30 PM 64.4 °F 53.6 °F 68% 30.24 in - South 8.1 mph - N/A   Clear
9:00 PM 64 °F 54 °F 63% 30.27 in 19 mi SSE 8.1 mph - -   Partly Cloudy
9:00 PM 64.4 °F 53.6 °F 68% 30.27 in - SSE 8.1 mph - N/A   Clear
9:30 PM 62.6 °F 55.4 °F 77% 30.27 in - South 6.9 mph - N/A   Clear
10:00 PM 60.8 °F 53.6 °F 77% 30.27 in - SSE 8.1 mph - N/A   Clear
10:30 PM 59.0 °F 53.6 °F 82% 30.24 in - East 5.8 mph - N/A   Clear
11:00 PM 57 °F 51 °F 76% 30.26 in - ESE 5.8 mph - -  
11:00 PM 57.2 °F 51.8 °F 82% 30.24 in - ESE 5.8 mph - N/A   Clear
11:30 PM 55.4 °F 50.0 °F 82% 30.24 in - NE 3.5 mph - N/A   Clear